Wind_Speed
23 27 31 35 38 41 42 42 42 38 37 34 33 35 38 35 33 30 34 41 52 69 78 81 81 77 76 75 72 67 64 65 66 64 63 60 60 60 58 55 52 48 47 44
22 23 22 23 23 22 19 18 16 18 22 24 28 27 32 37 32 31 33 35 38 43 53 67 86 82 76 77 74 70 65 63 62 63 60 59 59 58 58 54 50 49 49 48
8 8 10 9 9 8 7 10 17 18 19 21 24 22 31 33 30 29 27 28 30 28 39 48 56 72 82 74 74 72 67 63 61 59 58 57 55 56 55 52 51 50 49 50
8 10 12 8 4 9 13 14 17 19 19 18 20 19 24 24 23 19 15 21 19 22 25 25 42 53 65 77 70 67 66 64 59 59 54 52 54 56 54 52 51 51 50 48
10 12 11 8 9 10 14 15 14 11 11 11 13 15 19 19 21 20 15 15 15 15 16 12 13 36 54 66 66 60 57 56 54 52 52 49 49 52 52 50 50 51 51 50
12 13 12 9 8 8 11 10 14 15 13 13 15 19 20 24 20 24 14 10 9 7 12 13 8 6 25 49 58 51 50 47 45 45 44 47 47 45 42 42 43 47 47 50
12 11 11 11 12 12 13 15 14 15 14 15 19 21 22 18 20 22 10 11 9 9 9 10 14 8 9 31 40 43 38 34 33 38 36 38 37 36 35 37 40 43 43 43
17 18 19 19 18 16 17 16 16 19 20 18 20 22 20 19 16 15 16 20 13 14 22 14 14 27 24 13 11 21 24 24 23 25 31 35 35 33 36 39 38 38 33 30
16 15 18 21 21 18 19 21 22 24 22 27 26 24 29 27 24 20 17 15 17 20 18 14 13 14 22 12 7 10 16 18 20 19 20 24 28 31 34 32 30 29 27 23
12 12 16 18 19 18 20 18 22 19 23 26 26 24 28 32 27 30 29 24 19 18 12 11 13 11 17 15 8 9 11 11 11 8 12 13 8 10 14 17 28 26 25 25
15 14 15 16 17 18 16 15 17 20 19 20 20 23 23 27 29 31 32 31 35 43 37 30 23 16 19 17 11 16 14 14 18 17 9 13 15 14 11 7 17 12 22 12
20 19 16 14 13 17 17 17 15 15 18 24 24 22 18 22 32 29 27 38 36 40 46 52 45 45 44 41 36 24 24 27 21 18 11 27 20 22 22 19 17 14 12 11
21 22 22 21 18 16 15 14 16 15 15 17 19 20 23 23 23 22 21 18 21 26 33 32 31 36 40 40 31 29 26 24 25 21 23 19 14 11 11 9 6 3 2 5
17 17 18 19 18 18 18 18 18 18 18 17 12 12 14 15 14 17 19 21 24 26 24 25 27 28 24 25 24 22 21 19 18 15 12 12 8 4 5 3 4 7 10 13
13 14 15 15 14 13 14 14 14 14 14 15 14 14 14 14 14 15 17 19 22 23 23 22 22 22 21 20 18 17 14 12 9 7 5 3 2 4 6 9 11 15 18 20
11 12 13 13 13 13 13 13 13 13 13 13 14 15 13 12 11 11 12 16 17 16 15 15 15 14 14 12 10 8 8 8 7 6 6 7 9 10 13 15 17 20 23 27
12 12 11 11 12 11 10 11 12 13 13 12 12 12 12 11 10 9 10 9 8 8 8 8 7 7 9 10 8 9 8 8 8 10 12 14 17 19 21 21 23 27 29 34
12 12 13 13 13 12 11 10 10 10 9 9 8 8 6 5 4 4 2 0 1 3 5 7 8 10 13 12 9 9 11 12 14 16 18 21 23 25 27 28 30 32 35 38
9 11 10 10 12 12 12 12 12 11 9 10 9 8 7 7 7 9 10 10 11 11 13 14 14 16 18 16 15 17 18 21 21 22 24 27 28 30 31 32 33 36 40 44
11 12 13 13 14 13 10 10 11 12 13 11 12 13 14 14 14 13 14 15 18 20 21 21 23 24 23 23 23 24 26 26 26 28 30 32 33 33 34 35 38 42 45 48
15 15 16 16 16 16 16 17 17 16 15 14 15 16 17 18 19 20 22 22 22 23 25 25 26 26 27 27 26 27 29 30 31 32 35 37 37 38 38 42 45 47 50 54
21 22 20 20 20 20 17 18 20 21 20 20 19 18 19 20 21 23 25 25 26 28 30 29 29 30 30 32 32 33 34 34 35 37 39 41 43 44 46 48 49 51 54 57
26 26 26 25 24 25 23 23 23 23 23 23 23 24 24 23 23 24 24 25 27 31 33 33 34 32 32 34 35 36 37 38 40 41 41 43 46 48 49 49 50 54 57 61
29 31 30 28 26 32 31 28 28 28 28 29 30 28 27 30 31 29 27 27 29 31 33 33 35 36 36 37 37 38 40 40 40 42 43 44 45 47 50 52 55 60 62 62
31 32 33 29 27 30 29 32 33 33 32 32 32 32 32 34 33 32 32 32 33 35 37 38 39 38 38 38 39 39 41 42 43 45 46 48 50 52 52 54 58 64 64 63
20 21 19 23 26 26 28 29 29 30 30 29 29 31 33 35 38 40 40 40 40 41 41 41 41 41 42 43 43 43 44 45 47 48 49 50 51 53 55 55 60 64 64 65
Wind_Direction
283 283 282 282 281 281 280 281 280 284 289 287 280 287 284 281 281 282 282 270 267 264 253 251 248 246 243 245 247 245 244 245 241 240 241 237 238 240 241 241 240 243 246 251
298 296 295 290 287 285 283 293 302 299 291 288 281 288 287 289 293 288 283 291 282 269 260 252 246 244 242 242 243 245 245 245 244 242 240 240 240 241 242 243 242 244 247 249
48 31 7 342 331 319 310 308 305 304 307 309 297 299 292 296 294 290 285 291 293 286 274 260 250 245 240 240 240 241 244 245 245 243 242 239 240 241 245 244 244 246 248 249
27 18 6 11 4 332 326 328 328 316 304 294 309 311 297 309 317 312 294 310 298 310 310 285 245 230 233 234 237 238 240 244 246 246 243 244 242 242 242 245 248 249 250 250
341 337 357 5 344 339 338 344 339 356 345 330 338 340 343 336 339 339 328 318 317 336 353 330 262 236 218 228 232 238 242 244 246 247 248 249 244 244 245 246 247 247 246 247
346 347 351 349 344 1 3 13 27 21 17 14 341 344 346 351 344 351 351 343 9 26 41 37 46 186 212 213 226 234 240 245 246 244 241 242 247 250 248 246 244 245 245 245
10 27 34 41 45 37 40 36 24 24 7 345 346 349 343 334 347 352 39 65 65 37 42 46 52 110 203 205 214 227 238 244 244 238 237 238 244 247 242 240 239 240 242 247
42 49 48 45 42 47 42 38 33 26 25 13 14 12 12 6 2 5 343 358 31 56 47 70 120 76 88 119 191 228 240 245 239 229 231 235 238 239 237 236 236 244 247 244
34 35 40 38 40 45 54 56 48 44 46 47 47 48 48 43 42 44 49 38 17 30 45 57 98 100 87 86 107 179 206 211 203 204 210 220 228 232 236 239 232 227 240 256
29 34 43 43 40 48 56 56 45 40 47 43 44 49 51 51 51 54 56 59 39 44 80 81 86 105 126 147 124 113 130 137 161 173 205 209 223 251 242 246 232 250 246 250
42 40 39 48 45 54 53 43 37 50 36 41 37 34 32 37 51 62 57 74 80 82 100 100 104 117 139 174 161 134 116 134 130 150 164 167 222 218 104 223 240 272 246 262
50 52 54 61 58 62 56 49 48 47 52 52 46 43 28 36 35 51 50 67 67 74 74 87 95 96 104 94 118 133 121 105 134 186 173 112 99 93 94 84 74 65 63 34
57 57 59 62 61 54 51 50 38 39 47 53 50 50 42 36 33 27 37 54 62 69 80 83 82 84 84 87 101 100 96 97 98 106 112 116 120 112 108 114 119 114 8 347
58 56 57 57 53 53 56 53 50 48 50 51 59 58 42 43 48 50 39 54 61 71 77 85 87 87 88 96 98 97 96 94 92 98 104 104 105 106 85 40 346 332 318 319
47 42 43 47 49 45 43 43 42 41 48 49 47 50 61 62 58 58 63 62 64 69 68 72 77 80 80 80 85 91 92 77 64 55 54 44 8 337 322 308 316 320 320 318
36 32 27 27 29 27 26 24 32 37 39 49 48 41 37 47 62 64 62 77 84 82 82 80 76 74 70 69 65 62 46 39 17 12 353 334 325 314 310 308 309 311 310 309
11 13 14 12 9 9 15 19 19 22 26 37 45 52 57 58 67 74 80 79 72 58 48 46 46 34 15 2 6 1 2 348 334 327 325 325 321 318 310 304 301 303 308 312
10 8 6 3 1 360 357 357 359 3 5 8 15 22 26 33 35 29 27 324 302 302 316 319 314 318 323 323 323 320 314 315 316 314 318 315 310 308 308 307 306 308 308 309
1 2 5 5 0 359 1 352 345 340 336 328 323 324 320 317 304 288 286 285 282 286 290 291 294 298 306 301 296 297 294 304 306 305 304 304 303 302 305 304 302 303 303 305
342 345 346 349 349 349 345 345 338 336 331 322 310 304 303 302 297 295 293 290 288 287 286 284 286 290 288 287 284 290 293 296 298 299 300 301 304 303 301 300 300 301 304 306
316 321 325 330 334 338 338 340 335 333 331 327 318 311 304 300 294 290 289 289 287 288 291 290 289 288 289 288 288 289 291 294 296 298 300 302 302 300 300 301 304 307 307 308
309 310 314 317 323 321 324 324 322 323 325 324 320 315 311 306 303 302 299 293 289 290 291 293 293 290 288 288 288 287 288 291 292 296 300 300 301 303 306 306 305 307 309 311
305 305 310 316 319 312 315 315 315 316 314 313 313 315 314 309 305 300 300 302 302 300 297 297 297 293 287 285 284 285 287 291 294 298 299 300 303 305 306 308 309 310 311 312
293 295 301 302 307 305 313 313 310 310 311 312 312 308 307 306 308 306 305 302 298 296 296 297 300 302 298 294 292 292 294 296 298 298 299 301 303 303 305 305 308 311 311 312
288 292 293 302 298 300 305 302 305 307 309 308 306 305 303 303 302 301 304 306 307 304 300 296 293 293 294 294 294 295 297 298 298 298 299 300 301 303 304 305 308 311 313 313
294 305 314 300 294 298 296 299 298 300 301 302 303 301 300 301 301 301 300 300 300 303 302 299 296 295 292 290 290 291 291 291 292 293 295 297 301 303 305 307 310 310 313 314
Height
5704 5703 5700 5698 5697 5695 5693 5691 5689 5686 5684 5684 5677 5675 5667 5661 5658 5656 5650 5645 5643 5644 5650 5651 5656 5665 5672 5676 5685 5696 5705 5711 5719 5728 5736 5743 5749 5754 5758 5764 5768 5772 5775 5777
5697 5695 5693 5692 5690 5689 5687 5687 5686 5682 5680 5677 5672 5669 5660 5654 5650 5647 5642 5635 5630 5626 5624 5623 5630 5642 5655 5663 5671 5681 5692 5698 5706 5714 5724 5732 5738 5744 5748 5755 5759 5761 5764 5766
5695 5695 5693 5692 5691 5690 5688 5685 5682 5678 5673 5668 5664 5663 5652 5646 5640 5636 5632 5627 5620 5613 5607 5603 5608 5619 5635 5647 5657 5668 5678 5687 5695 5703 5713 5721 5727 5734 5740 5745 5748 5750 5752 5756
5698 5696 5694 5692 5690 5687 5684 5682 5677 5672 5668 5664 5662 5657 5648 5641 5633 5627 5623 5618 5612 5605 5596 5588 5587 5595 5609 5627 5641 5656 5667 5677 5686 5693 5703 5711 5718 5724 5729 5732 5736 5739 5740 5744
5698 5695 5693 5691 5688 5686 5683 5677 5673 5670 5666 5661 5658 5653 5645 5637 5630 5623 5619 5614 5608 5600 5590 5581 5578 5583 5594 5614 5634 5649 5660 5671 5678 5685 5693 5700 5706 5710 5716 5721 5725 5728 5729 5731
5697 5694 5692 5690 5686 5683 5680 5676 5671 5667 5664 5661 5656 5650 5643 5636 5628 5622 5617 5611 5605 5598 5593 5587 5584 5586 5593 5606 5626 5642 5653 5661 5668 5676 5683 5690 5696 5702 5708 5711 5714 5716 5719 5720
5696 5694 5691 5688 5686 5682 5679 5675 5672 5670 5664 5661 5655 5648 5640 5634 5628 5623 5618 5612 5607 5602 5598 5595 5593 5593 5598 5608 5623 5637 5646 5653 5659 5667 5674 5681 5687 5692 5697 5700 5704 5705 5709 5711
5697 5694 5692 5688 5685 5682 5679 5676 5672 5669 5665 5659 5654 5648 5642 5634 5629 5625 5622 5618 5613 5609 5606 5604 5602 5607 5609 5617 5626 5634 5641 5648 5654 5660 5667 5674 5680 5684 5687 5690 5694 5697 5701 5704
5698 5695 5693 5689 5687 5685 5682 5678 5676 5672 5668 5663 5657 5653 5646 5638 5633 5628 5624 5621 5617 5617 5612 5608 5608 5613 5617 5622 5626 5630 5636 5641 5647 5653 5660 5667 5672 5676 5680 5684 5688 5692 5695 5698
5700 5697 5695 5692 5689 5686 5684 5681 5680 5675 5671 5666 5663 5658 5653 5648 5641 5635 5631 5626 5623 5621 5619 5616 5615 5619 5624 5628 5631 5634 5636 5642 5648 5654 5659 5665 5671 5675 5678 5680 5683 5686 5689 5691
5699 5697 5696 5694 5691 5688 5687 5684 5682 5679 5675 5671 5666 5662 5658 5655 5650 5645 5640 5637 5634 5630 5627 5626 5625 5627 5630 5634 5636 5640 5644 5649 5653 5658 5663 5667 5671 5674 5675 5676 5679 5679 5683 5687
5701 5699 5696 5695 5693 5691 5689 5686 5685 5683 5680 5674 5670 5668 5664 5661 5657 5654 5652 5647 5645 5640 5637 5634 5636 5636 5638 5641 5641 5646 5653 5653 5656 5660 5665 5670 5674 5674 5676 5678 5679 5681 5682 5683
5705 5704 5702 5699 5698 5694 5691 5690 5687 5685 5683 5680 5676 5674 5671 5668 5665 5664 5662 5659 5656 5653 5649 5649 5649 5650 5652 5653 5654 5657 5659 5661 5664 5666 5670 5672 5674 5675 5676 5677 5679 5680 5680 5680
5710 5708 5706 5705 5702 5699 5696 5693 5690 5688 5687 5684 5680 5677 5675 5673 5672 5670 5667 5665 5662 5660 5660 5658 5658 5658 5660 5662 5664 5664 5667 5668 5670 5672 5673 5673 5675 5676 5674 5676 5676 5676 5676 5676
5714 5711 5709 5707 5705 5703 5700 5697 5695 5692 5690 5687 5685 5682 5680 5678 5676 5674 5674 5672 5669 5667 5667 5667 5666 5666 5667 5667 5669 5670 5671 5672 5673 5673 5673 5673 5673 5673 5672 5672 5670 5669 5668 5667
5717 5715 5712 5709 5707 5704 5702 5700 5698 5696 5693 5690 5688 5686 5684 5683 5681 5679 5678 5676 5675 5675 5674 5674 5674 5673 5673 5673 5674 5674 5673 5673 5673 5673 5672 5671 5670 5669 5668 5666 5664 5663 5661 5659
5718 5716 5714 5712 5709 5707 5706 5703 5700 5699 5697 5695 5693 5691 5689 5687 5686 5685 5683 5682 5681 5679 5678 5677 5677 5677 5676 5675 5674 5673 5673 5673 5672 5671 5669 5667 5665 5663 5661 5659 5657 5655 5652 5649
5719 5717 5715 5713 5711 5709 5707 5704 5703 5701 5699 5697 5695 5694 5692 5690 5689 5687 5685 5684 5683 5682 5681 5679 5678 5677 5675 5674 5673 5672 5671 5670 5668 5666 5664 5661 5659 5657 5654 5651 5648 5645 5642 5639
5720 5718 5716 5714 5711 5710 5707 5705 5703 5701 5700 5697 5695 5693 5692 5691 5690 5688 5686 5685 5683 5681 5680 5678 5677 5675 5673 5672 5670 5668 5667 5665 5663 5660 5658 5656 5653 5649 5646 5642 5639 5636 5632 5627
5718 5716 5715 5713 5711 5709 5707 5705 5703 5701 5700 5697 5694 5692 5690 5689 5687 5686 5684 5682 5680 5678 5676 5675 5673 5671 5669 5667 5666 5663 5661 5658 5656 5653 5650 5647 5643 5640 5637 5634 5631 5626 5621 5615
5718 5716 5713 5712 5709 5708 5706 5703 5701 5700 5700 5695 5693 5691 5689 5687 5685 5682 5680 5678 5676 5673 5671 5669 5668 5665 5662 5660 5658 5656 5653 5650 5647 5643 5640 5636 5633 5630 5626 5622 5618 5613 5608 5600
5715 5712 5711 5709 5707 5705 5703 5701 5698 5697 5694 5691 5689 5687 5685 5682 5680 5678 5676 5674 5671 5668 5666 5663 5661 5659 5656 5652 5650 5648 5644 5641 5638 5634 5630 5626 5622 5618 5613 5608 5603 5597 5591 5583
5709 5708 5707 5706 5703 5700 5699 5696 5694 5692 5690 5688 5685 5683 5680 5677 5675 5673 5671 5668 5665 5663 5660 5657 5654 5651 5648 5645 5642 5638 5634 5631 5626 5622 5619 5614 5609 5603 5598 5592 5586 5580 5574 5568
5702 5699 5700 5699 5698 5693 5693 5691 5689 5686 5684 5682 5680 5678 5675 5672 5669 5666 5663 5661 5658 5654 5651 5648 5646 5643 5640 5637 5634 5630 5626 5621 5617 5613 5608 5603 5598 5592 5586 5579 5572 5565 5559 5551
5694 5693 5691 5693 5690 5687 5685 5682 5679 5677 5676 5674 5672 5669 5667 5665 5662 5659 5657 5654 5651 5647 5643 5640 5636 5631 5628 5625 5622 5618 5613 5609 5605 5600 5596 5590 5584 5578 5571 5564 5556 5548 5539 5533
5686 5685 5683 5683 5680 5679 5677 5674 5671 5668 5665 5662 5661 5658 5656 5655 5652 5650 5647 5644 5641 5638 5634 5630 5626 5622 5617 5613 5609 5605 5601 5598 5593 5588 5582 5576 5570 5564 5557 5550 5539 5530 5523 5513